Overview Statistics Trail Chart Weather Telemetry Raw packets
 

This is the latest recevied weather packets stored in our database for station/object N7WSS. If no packets are shown the sender has not sent any weather packets the latest 10 day(s).

<< 51 52 53 54 55 56 57 >>
Time Temp. Humidity Pressure Rain* Wind** Luminosity Snow
1788284203 31.11° C 44% 1016.5 hPa 0 mm - - -
1788283898 30° C 45% 1016.7 hPa 0 mm - - -
1788283594 30° C 46% 1016.5 hPa 0 mm - - -
1788283292 30° C 46% 1016.9 hPa 0 mm - - -
1788282986 29.44° C 47% 1016.6 hPa 0 mm - - -
1788282685 30° C 47% 1016.6 hPa 0 mm - - -
1788282385 30° C 46% 1016.6 hPa 0 mm - - -
1788282080 29.44° C 49% 1016.6 hPa 0 mm - - -
1788281779 29.44° C 46% 1016.6 hPa 0 mm - - -
1788281474 29.44° C 49% 1016.6 hPa 0 mm - - -
1788281170 29.44° C 48% 1016.6 hPa 0 mm - - -
1788280864 28.89° C 48% 1016.6 hPa 0 mm - - -
1788280560 28.89° C 49% 1016.6 hPa 0 mm - - -
1788280259 28.89° C 48% 1016.6 hPa 0 mm - - -
1788279954 29.44° C 48% 1016.7 hPa 0 mm - - -
1788279654 28.33° C 50% 1016.5 hPa 0 mm - - -
1788279353 28.33° C 50% 1016.7 hPa 0 mm - - -
1788279053 27.78° C 52% 1016.5 hPa 0 mm - - -
1788278749 27.78° C 52% 1016.5 hPa 0 mm - - -
1788278444 28.33° C 51% 1016.5 hPa 0 mm - - -
1788278143 28.33° C 52% 1016.5 hPa 0 mm - - -
1788277839 28.33° C 52% 1016.3 hPa 0 mm - - -
1788277539 27.78° C 55% 1016.5 hPa 0 mm - - -
1788277234 27.78° C 56% 1016.5 hPa 0 mm - - -
1788276946 27.78° C 54% 1016.5 hPa 0 mm - - -

* Rain latest hour (hover to see other rain measurements)
** Current wind speed in m/s (hover to see current wind gust speed)